DO6HN-6 Weather Reports


Display with metric or nautical units.
time (UTC)temp
F
wind
direction
speed
MPH
gust
MPH
rain 1hr
in
rain 24hr
in
rain mn
in
humidity
%
barometer
mb
20260508120848 73 0.0 0.0 0.00 0.00 0.00 4 993.7
20260508115523 73 0.0 0.0 0.00 0.00 0.00 4 993.8
20260508114233 72 0.0 0.0 0.00 0.00 0.00 4 994.0
20260508113023 71 0.0 0.0 0.00 0.00 0.00 4 994.1
20260508111658 70 0.0 0.0 0.00 0.00 0.00 4 994.2
20260508110458 71 0.0 0.0 0.00 0.00 0.00 4 994.3
20260508105122 73 0.0 0.0 0.00 0.00 0.00 4 994.3
20260508103802 72 0.0 0.0 0.00 0.00 0.00 4 994.4
20260508102313 70 0.0 0.0 0.00 0.00 0.00 4 994.4
20260508100913 66 0.0 0.0 0.00 0.00 0.00 5 994.4
20260508095413 65 0.0 0.0 0.00 0.00 0.00 5 994.5
20260508094103 64 0.0 0.0 0.00 0.00 0.00 5 994.7
20260508092716 63 0.0 0.0 0.00 0.00 0.00 5 994.8
20260508091248 63 0.0 0.0 0.00 0.00 0.00 5 994.8
20260508090033 61 0.0 0.0 0.00 0.00 0.00 6 994.8
20260508084608 60 0.0 0.0 0.00 0.00 0.00 6 994.8
20260508083313 59 0.0 0.0 0.00 0.00 0.00 6 994.7
20260508081828 58 0.0 0.0 0.00 0.00 0.00 6 994.8
20260508080402 59 0.0 0.0 0.00 0.00 0.00 6 994.7
20260508075018 57 0.0 0.0 0.00 0.00 0.00 6 994.7
20260508073648 57 0.0 0.0 0.00 0.00 0.00 6 994.8
20260508072438 57 0.0 0.0 0.00 0.00 0.00 6 994.8
20260508071028 56 0.0 0.0 0.00 0.00 0.00 6 994.7
20260508065633 54 0.0 0.0 0.00 0.00 0.00 7 994.8
20260508064133 53 0.0 0.0 0.00 0.00 0.00 7 994.7
20260508062648 54 0.0 0.0 0.00 0.00 0.00 6 994.7
20260508061253 54 0.0 0.0 0.00 0.00 0.00 6 994.7
20260508055938 53 0.0 0.0 0.00 0.00 0.00 6 994.7
20260508054550 53 0.0 0.0 0.00 0.00 0.00 6 994.5
20260508053118 53 0.0 0.0 0.00 0.00 0.00 6 994.4
20260508051728 52 0.0 0.0 0.00 0.00 0.00 7 994.3
20260508050442 53 0.0 0.0 0.00 0.00 0.00 7 994.2
20260508045048 53 0.0 0.0 0.00 0.00 0.00 6 994.1
20260508043848 52 0.0 0.0 0.00 0.00 0.00 7 994.0
20260508042509 53 0.0 0.0 0.00 0.00 0.00 6 994.0
20260508041233 53 0.0 0.0 0.00 0.00 0.00 6 993.9
20260508035733 53 0.0 0.0 0.00 0.00 0.00 6 993.9
20260508034402 53 0.0 0.0 0.00 0.00 0.00 6 993.9
20260508032938 53 0.0 0.0 0.00 0.00 0.00 6 993.9
20260508031518 53 0.0 0.0 0.00 0.00 0.00 6 993.9
20260508030203 53 0.0 0.0 0.00 0.00 0.00 6 993.8
20260508024908 53 0.0 0.0 0.00 0.00 0.00 6 993.7
20260508023608 54 0.0 0.0 0.00 0.00 0.00 6 993.6
20260508022143 54 0.0 0.0 0.00 0.00 0.00 6 993.6
20260508020722 55 0.0 0.0 0.00 0.00 0.00 6 993.6
20260508015308 55 0.0 0.0 0.00 0.00 0.00 6 993.5
20260508013842 55 0.0 0.0 0.00 0.00 0.00 6 993.6
20260508012433 55 0.0 0.0 0.00 0.00 0.00 6 993.5
20260508011148 55 0.0 0.0 0.00 0.00 0.00 6 993.6
20260508005708 56 0.0 0.0 0.00 0.00 0.00 6 993.5
20260508004238 56 0.0 0.0 0.00 0.00 0.00 6 993.6
20260508002918 56 0.0 0.0 0.00 0.00 0.00 6 993.7
20260508001518 57 0.0 0.0 0.00 0.00 0.00 6 993.9
20260508000228 57 0.0 0.0 0.00 0.00 0.00 6 993.9
20260507234738 57 0.0 0.0 0.00 0.00 0.00 6 994.0
20260507233433 58 0.0 0.0 0.00 0.00 0.00 6 993.9
20260507231958 58 0.0 0.0 0.00 0.00 0.00 6 994.0
20260507230758 58 0.0 0.0 0.00 0.00 0.00 6 994.0
20260507225328 58 0.0 0.0 0.00 0.00 0.00 6 994.0
20260507224053 58 0.0 0.0 0.00 0.00 0.00 6 994.0
20260507222723 57 0.0 0.0 0.00 0.00 0.00 6 994.1
20260507221343 58 0.0 0.0 0.00 0.00 0.00 6 994.0
20260507220002 58 0.0 0.0 0.00 0.00 0.00 6 994.0
20260507214724 59 0.0 0.0 0.00 0.00 0.00 6 993.9
20260507213323 59 0.0 0.0 0.00 0.00 0.00 6 993.8
20260507211848 59 0.0 0.0 0.00 0.00 0.00 6 993.8
20260507210423 59 0.0 0.0 0.00 0.00 0.00 6 993.8
20260507205153 60 0.0 0.0 0.00 0.00 0.00 6 993.8
20260507203928 60 0.0 0.0 0.00 0.00 0.00 6 993.6
20260507202639 60 0.0 0.0 0.00 0.00 0.00 6 993.5
20260507201148 60 0.0 0.0 0.00 0.00 0.00 6 993.4
20260507195743 61 0.0 0.0 0.00 0.00 0.00 6 993.3
20260507194538 61 0.0 0.0 0.00 0.00 0.00 6 993.2
20260507193153 60 0.0 0.0 0.00 0.00 0.00 6 993.1
20260507191718 62 0.0 0.0 0.00 0.00 0.00 5 993.1
20260507190343 62 0.0 0.0 0.00 0.00 0.00 5 992.9
20260507185002 63 0.0 0.0 0.00 0.00 0.00 5 992.9
20260507183758 64 0.0 0.0 0.00 0.00 0.00 5 992.7
20260507182543 64 0.0 0.0 0.00 0.00 0.00 5 992.7
20260507181113 65 0.0 0.0 0.00 0.00 0.00 5 992.6
20260507175738 65 0.0 0.0 0.00 0.00 0.00 5 992.6
20260507174258 65 0.0 0.0 0.00 0.00 0.00 5 992.5
20260507173018 65 0.0 0.0 0.00 0.00 0.00 5 992.5
20260507171542 65 0.0 0.0 0.00 0.00 0.00 5 992.4
20260507170113 65 0.0 0.0 0.00 0.00 0.00 5 992.3
20260507164727 65 0.0 0.0 0.00 0.00 0.00 5 992.4
20260507163343 65 0.0 0.0 0.00 0.00 0.00 5 992.3
20260507161938 65 0.0 0.0 0.00 0.00 0.00 5 992.3
20260507160522 65 0.0 0.0 0.00 0.00 0.00 5 992.3
20260507155113 64 0.0 0.0 0.00 0.00 0.00 5 992.3
20260507153803 64 0.0 0.0 0.00 0.00 0.00 5 992.2
20260507152328 63 0.0 0.0 0.00 0.00 0.00 5 992.2
20260507151002 64 0.0 0.0 0.00 0.00 0.00 5 992.2
20260507145633 63 0.0 0.0 0.00 0.00 0.00 5 992.2
20260507144348 63 0.0 0.0 0.00 0.00 0.00 5 992.2
20260507143108 61 0.0 0.0 0.00 0.00 0.00 5 992.3
20260507141813 62 0.0 0.0 0.00 0.00 0.00 5 992.2
20260507140533 61 0.0 0.0 0.00 0.00 0.00 5 992.2
20260507135128 62 0.0 0.0 0.00 0.00 0.00 5 992.2
20260507133738 62 0.0 0.0 0.00 0.00 0.00 5 992.2
20260507132238 61 0.0 0.0 0.00 0.00 0.00 6 992.2
20260507130958 61 0.0 0.0 0.00 0.00 0.00 5 992.1
20260507125513 61 0.0 0.0 0.00 0.00 0.00 6 992.1
20260507124313 61 0.0 0.0 0.00 0.00 0.00 6 992.1
20260507122858 61 0.0 0.0 0.00 0.00 0.00 5 991.9
20260507121402 61 0.0 0.0 0.00 0.00 0.00 6 991.8